Location: *
(43.4667°N, 11.6833°E)
Time: 05:41:25
(UTC+00:00)

DELTA 2 DEB (DPAF) - Pass Details

Date: 19 July 2019
Orbit: 642 x 648 km, 98.3° (Epoch: 19 August)

Event Time Altitude Azimuth Distance (km) Brightness Sun altitude
Exits shadow 23:54:19 66° 296° (WNW) 711 4.3 -25.3°
Drops below altitude 10° 23:58:25 10° 342° (NNW) 2,059 7.5 -25.2°
Sets 00:00:39 0° 345° (NNW) 2,974 8.6 -25.1°
